Погода в Никшиче

Черногория     42°46′23″N   18°57′28″E
темп.,
°C
ветер,
м/с
пор.,
м/с
влажн.,
%
обл.,
%
осадки,
мм/ч
давл.,
гПа
погр.,
м
8 мая, сб
сб823:00+9всв118198 0.0 101511
02:00+8ссв117545 0.0 101410
05:00+9с3477100 0.0 1015137
08:00+9ссв347431 0.0 1018420
11:00+13ссв22635 0.0 1017822
14:00+16с335311 0.0 10161433
17:00+14с335314 0.0 1017742
20:00+8ссв326961 0.0 102025
9 мая, вс
вс923:00+6ссв336662 0.0 102233
02:00+5ссв33665 0.0 102342
05:00+5ссв33435 0.0 102230
08:00+11ссв22444 0.0 1021122
11:00+18юв11325 0.0 1020739
14:00+19ююз22345 0.0 10201138
17:00+17ю33500 0.0 1020620
20:00+10в22660 0.0 102110
10 мая, пн
пн1023:00+9всв22400 0.0 102210
02:00+9всв11574 0.0 102210
05:00+9св11735 0.0 102110
08:00+14ююв016790 0.0 1021183
11:00+18ююз225779 0.0 10201013
14:00+20ю225267 0.0 10191379
17:00+19ю226191 0.0 10181143
20:00+13ююв12910 0.0 101912
11 мая, вт
вт1123:00+11св11900 0.0 101910
02:00+10ссв22890 0.0 101811
05:00+10ссв22850 0.0 101712
08:00+15вюв00695 0.0 1016161
11:00+19ю225237 0.0 10151025
14:00+20ю33550 0.0 10141398
17:00+18ю44630 0.0 10131146
20:00+13юв33945 0.0 101341
12 мая, ср
ср1223:00+11юв349823 0.0 101373
02:00+11вюв349874 0.0 1011167
05:00+8юв369610 0.0 1010141
08:00+10ююв51092100 0.4 1008807
11:00+9ю1487100 9.3 1010380
14:00+14ююз68607 9.7 10091691
17:00+12ююз686311 0.1 10081359
20:00+8ююв22848 0.9 101013